Date,TemperatureHighF,TemperatureAvgF,TemperatureLowF,DewpointHighF,DewpointAvgF,DewpointLowF,HumidityHigh,HumidityAvg,HumidityLow,PressureMaxIn,PressureMinIn,WindSpeedMaxMPH,WindSpeedAvgMPH,GustSpeedMaxMPH,PrecipitationSumIn
2013-4-1,76.7,67.0,60.4,68.9,62.6,57.1,92,86,75,30.06,29.92,11,1,11,0.00
2013-4-2,72.0,66.1,59.5,67.2,62.7,56.3,92,89,84,30.00,29.79,16,2,17,7.66
2013-4-3,66.9,61.6,53.9,62.5,58.3,50.7,92,89,84,30.06,29.75,17,0,17,45.66
2013-4-4,57.9,53.5,51.2,51.9,48.6,44.2,90,83,75,30.16,30.00,1,0,1,0.05
2013-4-5,71.3,57.2,44.3,54.8,47.6,39.2,85,71,53,30.24,30.08,9,0,9,41.50
2013-4-6,72.8,61.8,49.2,61.4,54.9,44.6,89,79,66,30.11,29.95,17,2,20,0.00
2013-4-7,76.2,68.7,61.6,64.5,61.9,57.9,89,80,66,29.98,29.85,17,2,19,0.00
2013-4-8,75.8,70.3,64.0,69.1,65.7,61.0,91,86,78,29.87,29.77,21,3,21,0.00
2013-4-9,77.8,72.8,68.1,72.6,68.7,65.1,90,87,82,29.80,29.69,21,5,21,0.00
2013-4-10,77.5,67.9,51.2,72.3,64.3,48.4,92,88,80,29.81,29.68,17,4,22,0.23
2013-4-11,69.0,54.5,44.3,57.7,48.9,41.6,91,82,62,29.95,29.75,22,3,22,1.68
2013-4-12,75.8,60.5,46.2,59.0,51.0,42.2,89,73,45,30.00,29.85,12,0,12,0.01
2013-4-13,74.9,63.7,49.3,62.1,55.6,45.0,88,76,60,29.96,29.78,15,2,15,0.00
2013-4-14,78.2,68.7,58.9,70.0,63.2,54.5,89,83,75,29.79,29.68,14,1,14,0.00
2013-4-15,77.7,72.5,68.4,72.0,68.5,64.9,90,87,82,29.84,29.73,14,2,14,0.00
2013-4-16,78.8,74.0,71.7,73.6,70.6,68.6,91,89,84,29.94,28.14,19,2,19,0.00
2013-4-17,76.2,74.0,72.8,72.4,70.8,69.7,91,90,88,29.92,29.75,20,4,20,0.00
2013-4-18,75.5,66.6,53.4,72.2,63.1,47.8,91,89,81,30.01,29.70,22,5,22,0.23
2013-4-19,66.8,55.6,46.3,47.9,40.7,33.6,81,59,37,30.22,30.00,19,5,24,0.00
2013-4-20,67.3,54.7,38.6,51.4,43.0,32.1,82,65,53,30.23,30.08,14,1,14,0.00
2013-4-21,71.9,62.9,55.1,60.1,54.3,47.7,82,74,65,30.15,30.04,16,1,16,0.00
2013-4-22,76.0,64.8,53.7,64.7,57.7,48.3,89,78,65,30.09,28.20,12,1,12,0.00
2013-4-23,78.7,71.2,61.9,69.8,65.5,58.3,90,82,71,29.96,21.17,17,2,17,0.03
2013-4-24,72.4,61.1,50.0,69.0,54.0,46.3,89,78,66,30.18,29.95,22,4,22,0.13
2013-4-25,67.8,62.6,57.2,61.3,54.0,48.3,82,74,66,30.28,30.16,15,3,20,0.00
2013-4-26,78.7,71.8,66.6,71.6,66.8,61.3,89,85,78,30.20,21.61,17,2,17,0.00
2013-4-27,77.8,72.4,66.8,72.1,68.5,63.4,91,88,80,30.10,21.22,15,2,15,0.58
2013-4-28,78.3,70.7,64.3,69.0,64.9,60.7,91,82,67,30.04,28.14,9,1,15,0.47
2013-4-29,81.0,72.1,64.6,70.9,66.8,60.8,91,84,69,29.92,28.09,7,1,10,0.03
2013-4-30,79.0,71.4,64.3,70.4,66.3,61.3,91,84,72,29.83,21.06,13,1,13,0.00